Regional Weather Roundup
Issued by NWS

Home | Current Version | Previous Version | Text Only | Print | Product List | Glossary On
Versions: 1 2 3 4 5 6 7 8 9 10 11 12 13 14 15 16 17 18 19 20 21 22 23 24 25 26 27 28 29 30 31 32 33 34 35 36 37 38 39 40 41 42 43 44 45 46 47 48 49 50
000
ASUS46 KLOX 250811
RWRCA

SOUTHERN CALIFORNIA WEATHER ROUNDUP
NATIONAL WEATHER SERVICE OXNARD CALIFORNIA
100 AM PDT MON MAY 25 2015

NOTE: "FAIR" INDICATES FEW OR NO CLOUDS BELOW 12,000 FEET WITH NO
SIGNIFICANT WEATHER AND/OR OBSTRUCTIONS TO VISIBILITY.

  -  STATIONS PRECEEDED BY AN ASTERISK (*) ARE NOT NWS OR FAA
     STATIONS AND ARE NOT SUBJECT TO NWS AND FAA QUALITY CONTROL.

CAZ041-042-087-250900-
LA AND ORANGE COUNTY COASTAL AREAS


CITY           SKY/WX    TMP DP  RH WIND       PRES   REMARKS
L.A. DOWNTOWN  PTCLDY    59  52  77 CALM      29.96F
L.A. AIRPORT   PTCLDY    58  54  86 W6        29.97S
LONG BEACH     PTCLDY    60  54  80 N5        29.96F

CITY           SKY/WX    TMP DP  RH WIND       PRES   REMARKS
AVALON           N/A     54 N/A N/A MISG        N/A
FULLERTON      PTCLDY    61  54  77 CALM      29.96S
HAWTHORNE      CLEAR     60  53  77 CALM      29.97S
*LOS ALAMITOS  FAIR      57  54  89 CALM      29.96F
*REDONDO BEACH   N/A     58  54  85 CALM      29.96F
SANTA ANA      CLOUDY    61  53  75 CALM      29.96F
STA MONICA APT CLEAR     59  53  80 CALM      29.97S
*STA MON PIER    N/A     58  54  86 CALM      29.95F
*UCLA            N/A     55  50  82 CALM      29.93F

$$

CAZ547-548-048-250900-
LA COUNTY VALLEYS AND INLAND EMPIRE


CITY           SKY/WX    TMP DP  RH WIND       PRES   REMARKS
BURBANK        CLEAR     59  51  75 CALM      29.95F
VAN NUYS       CLEAR     59  50  72 E3        29.95F

CITY           SKY/WX    TMP DP  RH WIND       PRES   REMARKS
CORONA AIRPORT SUNNY     56  53  89 CALM      29.97S
*CHATSWORTH      N/A     57  49  74 W1        29.95F
CHINO          CLEAR     55  52  89 CALM      29.98S
MARCH AFB      CLEAR     52  52  98 W1        29.96F
*NORTHRIDGE      N/A     57  46  67 NE2         N/A
ONTARIO        PTCLDY    55  52  89 W10       29.96S
*PASADENA        N/A     59  52  77 CALM        N/A
RIVERSIDE      CLEAR     57  53  86 CALM      29.97S
SAN BERNARDINO NOT AVBL
*WHITEMAN AP   NOT AVBL
*WOODLAND HILL   N/A     55  46  71 S2          N/A

$$

CAZ054-055-250900-
LA AND SAN BERNARDINO COUNTY MOUNTAINS


CITY           SKY/WX    TMP DP  RH WIND       PRES   REMARKS
*BIG BEAR AIRP SUNNY     37  32  81 CALM      30.09S
SANDBERG       CLEAR     56  45  66 NW13      30.02S

$$

CAZ028-029-059-060-099-250900-
ANTELOPE VALLEY AND SURROUNDING AREAS


CITY           SKY/WX    TMP DP  RH WIND       PRES   REMARKS
LANCASTER      CLEAR     58  46  64 SW10      29.91S
PALMDALE       CLEAR     57  47  69 S10       29.93S

CITY           SKY/WX    TMP DP  RH WIND       PRES   REMARKS
29 PALMS       CLEAR     69  46  43 W9        29.94F
BARSTOW/DAGGET CLEAR     68  42  38 NW15      29.87S
BISHOP         PTCLDY    63  47  55 W7        29.95S
CHINA LAKE     PTCLDY    66  41  40 S6        29.85R
EDWARDS AFB    CLEAR     59  45  60 S15       29.88S
MOJAVE         FAIR      64  43  45 W21G26    29.89F
NEEDLES        CLEAR     78  36  21 CALM      29.82R
VICTORVILLE    CLEAR     57  46  67 S9        29.94F

$$

CAZ039-040-250900-
VENTURA AND SANTA BARBARA COUNTY COAST


CITY           SKY/WX    TMP DP  RH WIND       PRES   REMARKS
CAMARILLO      MOCLDY    58  52  80 CALM      29.96F
OXNARD AIRPORT MOCLDY    58  52  80 CALM      29.96F
*POINT MUGU    MOCLDY    58  52  80 NW3       29.97F
SBA APT/GOLETA CLEAR     55  52  89 CALM      29.95S
*SANTA BARBARA   N/A     58  52  79 CALM      30.03S
*VENTURA         N/A     58  52  80 CALM      29.56S

$$

CAZ044-045-250900-
VENTURA COUNTY VALLEYS


CITY           SKY/WX    TMP DP  RH WIND       PRES   REMARKS
*SIMI VALLEY     N/A     53  49  85 CALM      29.92S
*OJAI            N/A     50  46  87 CALM      29.90F
*FILLMORE        N/A     53  47  78 CALM      29.86F

$$

CAZ053-250900-
VENTURA COUNTY MOUNTAINS


CITY           SKY/WX    TMP DP  RH WIND       PRES   REMARKS

$$

CAZ034-035-036-250900-
CENTRAL COAST AND SANTA YNEZ VALLEY


CITY           SKY/WX    TMP DP  RH WIND       PRES   REMARKS
SAN LUIS OBISP CLOUDY    54  50  86 NW5       29.99F
SANTA MARIA    CLOUDY    56  52  86 W8        29.99F

CITY           SKY/WX    TMP DP  RH WIND       PRES   REMARKS
*CAL POLY SLO    N/A     54  52  94 W1          N/A
*PISMO BEACH     N/A     56  52  87 W3        30.00S
*SANTA YNEZ    CLOUDY    54  48  82 CALM      29.98F

$$

CAZ037-038-051-250900-
SAN LUIS OBISPO COUNTY INTERIOR AND CUYAMA VALLEY


CITY           SKY/WX    TMP DP  RH WIND       PRES   REMARKS
*CUYAMA          N/A     53  47  78 W2        29.91S
PASO ROBLES    PTCLDY    53  49  86 W10       29.97S

$$

CAZ032-033-061-250900-
SOUTHERN DESERTS


CITY           SKY/WX    TMP DP  RH WIND       PRES   REMARKS
BLYTHE         CLEAR     73  47  39 S7        29.80S
IMPERIAL       CLEAR     68  49  50 W8        29.80S
PALM SPRINGS   CLEAR     71  50  47 CALM      29.84S
THERMAL        CLEAR     71  50  47 NW12      29.79S

$$

ELSEWHERE ACROSS THE WESTERN UNITED STATES AND MEXICO


CITY           SKY/WX    TMP DP  RH WIND       PRES   REMARKS
DENVER, CO     MOCLDY    44  41  89 W6        29.88S
GRAND CANYON,  MOCLDY    40  39  97 CALM      30.05F FOG
HONOLULU, HI   CLOUDY    73  57  56 N9        30.06R
KAHULUI, MAUI  MOCLDY    73  63  68 NE13      30.06R
LAKE TAHOE, CA FOG       45  41  86 CALM      30.08F VSB 3/4
LAS VEGAS, NV  CLOUDY    65  54  67 E5        29.88S
MAMMOTH LAKES, MOCLDY    46  39  76 NW3       30.10F
MEXICO CITY, M MOCLDY    59  52  77 NE3       30.32F
PHOENIX, AZ    CLEAR     76  41  28 N5        29.83S
PORTLAND, OR   CLOUDY    54  47  77 NW8       30.04S
RENO, NV       MOCLDY    61  47  59 W7        30.00R
SALT LAKE CITY MOCLDY    52  49  89 SE6       29.92S
SAN DIEGO, CA  MOCLDY    63  53  70 CALM      29.98S
SAN FRANCISCO, CLOUDY    56  50  80 SW6       29.98F
SAN JOSE, CA   CLOUDY    57  49  74 W7        29.98S
SEATTLE, WA    CLOUDY    54  47  77 SW6       30.02F
TIJUANA, MEX   CLOUDY    61  52  72 NW5       29.99

$$

STATION/POSITION TIME  TEMP    WIND        PRES    VSBY  WAVE
                       AIR SEA DIR/SP/G                  HT/PER
                 (UTC) (F)     (DEG/KT/KT) (MB)    (MI)  (FT/S)
POINT ARGUELLO B NOT AVBL
WEST SANTA BARBA 0750   54 53  330/ 16/ 19 1014.7F         5/ 9
POINT CONCEPTION NOT AVBL
EAST SANTA BARBA 0700   58 57   30/  6/  8 1014.9F
SANTA MONICA BAY 0750   58 62  250/ 10/ 12 1014.6F         4/ 6



USA.gov is the U.S. government's official web portal to all federal, state and local government web resources and services.